Location: Croissy-Beaubourg
(48.8283°N, 2.6696°E)
Time: 01:19:25
(UTC+00:00)

USA 215 - Pass Details

Date: 30 May 2022
Orbit: 1099 x 1108 km, 123.0° (Epoch: 10 June)

Event Time Altitude Azimuth Distance (km) Brightness Sun altitude
Rises 22:27:21 0° 58° (ENE) 3,927 6.3 -17.1°
Reaches altitude 10° 22:30:11 10° 68° (ENE) 2,967 5.6 -17.2°
Maximum altitude 22:35:54 32° 129° (SE) 1,814 4.0 -17.5°
Enters shadow 22:37:53 27° 160° (SSE) 1,988 4.0 -17.6°
